Location: Piolenc
(44.1794°N, 4.7641°E)
Time: 04:32:17
(UTC+00:00)

Cosmos 1726 Rocket - Pass Details

Date: 27 January 2021
Orbit: 604 x 628 km, 82.5° (Epoch: 27 February)

Event Time Altitude Azimuth Distance (km) Brightness Sun altitude
Rises 06:10:52 0° 201° (SSW) 2,844 6.9 -9.7°
Reaches altitude 10° 06:13:07 10° 207° (SSW) 1,945 6.0 -9.3°
Maximum altitude 06:17:17 48° 282° (WNW) 794 3.7 -8.6°
Drops below altitude 10° 06:21:29 10° 358° (N) 1,963 5.9 -7.9°
Sets 06:23:47 0° 4° (N) 2,874 6.8 -7.5°
